This is the latest recevied weather packets stored in our database for station/object WW5JC. If no packets are shown the sender has not sent any weather packets the latest 10 day(s).
| Time | Temp. | Humidity | Pressure | Rain* | Wind** | Luminosity | Snow |
|---|---|---|---|---|---|---|---|
| 1777988244 | 21.67° C | 89% | 1006.6 hPa | 0 mm | - | 33 W/m² | - |
| 1777987941 | 21.67° C | 89% | 1006.8 hPa | 0 mm | - | 25 W/m² | - |
| 1777987636 | 21.67° C | 89% | 1006.7 hPa | 0 mm | - | 30 W/m² | - |
| 1777987334 | 21.67° C | 89% | 1006.7 hPa | 0 mm | - | 26 W/m² | - |
| 1777987031 | 21.11° C | 89% | 1006.8 hPa | 0 mm | - | 26 W/m² | - |
| 1777986729 | 21.67° C | 89% | 1006.8 hPa | 0 mm | - | 21 W/m² | - |
| 1777986426 | 21.67° C | 89% | 1006.8 hPa | 0 mm | - | 29 W/m² | - |
| 1777986124 | 21.11° C | 89% | 1006.6 hPa | 0 mm | - | 20 W/m² | - |
| 1777985820 | 21.11° C | 89% | 1006.6 hPa | 0 mm | - | 21 W/m² | - |
| 1777985518 | 21.11° C | 89% | 1006.4 hPa | 0 mm | - | 21 W/m² | - |
| 1777985214 | 21.11° C | 89% | 1006.7 hPa | 0 mm | - | 15 W/m² | - |
| 1777984911 | 21.11° C | 89% | 1006.5 hPa | 0 mm | - | 13 W/m² | - |
| 1777984607 | 21.11° C | 89% | 1006.7 hPa | 0 mm | - | 12 W/m² | - |
| 1777984304 | 21.11° C | 89% | 1006.6 hPa | 0 mm | - | 11 W/m² | - |
| 1777984000 | 21.11° C | 89% | 1006.5 hPa | 0 mm | - | 8 W/m² | - |
| 1777983698 | 21.11° C | 89% | 1006.5 hPa | 0 mm | - | 9 W/m² | - |
| 1777983394 | 21.11° C | 89% | 1006.3 hPa | 0 mm | - | 7 W/m² | - |
| 1777983091 | 21.11° C | 88% | 1006.3 hPa | 0 mm | - | 6 W/m² | - |
| 1777982787 | 21.11° C | 89% | 1006.3 hPa | 0 mm | - | 8 W/m² | - |
| 1777982483 | 21.11° C | 89% | 1006.2 hPa | 0 mm | - | 4 W/m² | - |
| 1777982177 | 21.11° C | 88% | 1006.1 hPa | 0 mm | - | 5 W/m² | - |
| 1777981875 | 21.11° C | 89% | 1006.4 hPa | 0 mm | - | 3 W/m² | - |
| 1777981572 | 21.11° C | 89% | 1006.1 hPa | 0 mm | - | 2 W/m² | - |
| 1777981268 | 21.11° C | 89% | 1006.5 hPa | 0 mm | - | 1 W/m² | - |
| 1777980965 | 21.11° C | 89% | 1006.1 hPa | 0 mm | - | 1 W/m² | - |
* Rain latest hour (hover to see other rain measurements)
** Current wind speed in m/s (hover to see current wind gust speed)